Flag for Czech Republic Weather past 2 weeks in Tábor, Czech Republic

Now
45 °F

Overcast.


Feels Like: 44 °F
Forecast: 47 / 51 °F
Wind: 3 mph from West

Location: Kocelovice

Current Time: Dec 18, 2014 at 11:51:18 AM

Latest Report: Dec 18, 2014 at 11:00 AM


Visibility: 28 mi

Pressure: 29.99 "Hg

Humidity: 87%

Dew point: 42 °F

Location of TáborLocation

Historic Weather in Tábor — Graph

°F

Tábor temperature yesterday

Maximum temperature yesterday: 39 °F (at 1:00 AM)
Minimum temperature yesterday: 33 °F (at 6:00 AM)
Average temperature yesterday: 36 °F

Past Weeks' High & Low Weather Summary

 TemperatureHumidityPressure
High48 °F (Dec 14, 1:00 PM)100% (Dec 3, 10:00 AM)30.51 "Hg (Dec 3, 10:00 AM)
Low23 °F (Dec 9, 7:00 AM)57% (Dec 12, 3:00 PM)29.75 "Hg (Dec 12, 8:00 PM)
Average37 °F88%30.06 "Hg
* Reported Dec 3 10:00 AM — Dec 18 10:00 AM, Tábor, Weather by CustomWeather, © 2014

Note: Actual official high and low records may vary slightly from our data, if they occured in-between our weather recording intervals... More about our weather records

Advertising

Tábor weather history for previous 24 hours

 ConditionsComfort  
Time TempWeatherWind HumidityBarometerVisibility
10:00 AM
Dec 18
44 °FLow clouds.5 mph89%30.01 "Hg25 mi
9:00 AM42 °FLow clouds.6 mph95%30.00 "Hg7 mi
8:00 AM42 °FFog.6 mph95%29.99 "Hg6 mi
7:00 AM42 °FLow clouds.7 mph94%29.97 "Hg9 mi
6:00 AM41 °FQuite cool.6 mph95%29.96 "Hg9 mi
5:00 AM41 °FQuite cool.7 mph93%29.94 "Hg12 mi
3:00 AM40 °FRain showers. Overcast.9 mph93%29.93 "Hg6 mi
2:00 AM39 °FRain showers. Overcast.7 mph93%29.91 "Hg9 mi
1:00 AM39 °FChilly.8 mph89%29.90 "Hg12 mi
12:00 AM38 °FRain showers. Overcast.8 mph91%29.88 "Hg12 mi
11:00 PM
Dec 17
38 °FRain showers. Overcast.7 mph91%29.86 "Hg8 mi
10:00 PM38 °FChilly.8 mph88%29.83 "Hg12 mi
9:00 PM38 °FOvercast.9 mph84%29.81 "Hg37 mi
8:00 PM38 °FOvercast.6 mph86%29.81 "Hg25 mi
7:00 PM36 °FLight rain. Overcast.3 mph90%29.81 "Hg9 mi
6:00 PM35 °FLight rain. Overcast.N/A94%29.82 "Hg9 mi
5:00 PM35 °FLight rain. Overcast.3 mph90%29.82 "Hg9 mi
4:00 PM37 °FOvercast.2 mph77%29.83 "Hg17 mi
3:00 PM37 °FOvercast.2 mph75%29.84 "Hg22 mi
2:00 PM37 °FOvercast.2 mph75%29.87 "Hg17 mi
1:00 PM37 °FOvercast.3 mph76%29.90 "Hg17 mi
12:00 PM37 °FOvercast.6 mph71%29.93 "Hg19 mi
11:00 AM37 °FOvercast.5 mph74%29.95 "Hg19 mi
Weather by CustomWeather, © 2014

See weather overviewHow to use our weather pages